Météo par heure à Almaly

Ce jour, 15 Mai, Samedi

Heure Température Précipitation Vent Pression Humidité
00:00 +22°C° 0 mm 4 m/s 766 mmHg 29%
01:00 +21°C° 0 mm 4 m/s 766 mmHg 30%
02:00 +21°C° 0 mm 4 m/s 766 mmHg 31%
03:00 +20°C° 0 mm 4 m/s 766 mmHg 34%
04:00 +21°C° 0 mm 4 m/s 766 mmHg 37%
05:00 +22°C° 0 mm 4 m/s 766 mmHg 40%
06:00 +23°C° 0 mm 4 m/s 766 mmHg 43%
07:00 +26°C° 0 mm 4 m/s 766 mmHg 38%
08:00 +29°C° 0 mm 5 m/s 766 mmHg 33%
09:00 +32°C° 0 mm 6 m/s 766 mmHg 27%
10:00 +33°C° 0 mm 6 m/s 766 mmHg 25%
11:00 +34°C° 0 mm 6 m/s 765 mmHg 22%
12:00 +35°C° 0 mm 7 m/s 765 mmHg 19%
13:00 +35°C° 0 mm 6 m/s 765 mmHg 19%
14:00 +35°C° 0 mm 6 m/s 765 mmHg 18%
15:00 +35°C° 0 mm 5 m/s 764 mmHg 17%
16:00 +34°C° 0 mm 4 m/s 764 mmHg 20%
17:00 +33°C° 0 mm 4 m/s 764 mmHg 23%
18:00 +31°C° 0 mm 3 m/s 764 mmHg 26%
19:00 +29°C° 0 mm 3 m/s 764 mmHg 27%
20:00 +28°C° 0 mm 3 m/s 764 mmHg 28%
21:00 +26°C° 0 mm 4 m/s 764 mmHg 28%
22:00 +26°C° 0 mm 4 m/s 764 mmHg 29%
23:00 +25°C° 0 mm 3 m/s 764 mmHg 30%

Demain, 16 Mai, Dimanche

Heure Température Précipitation Vent Pression Humidité
00:00 +24°C° 0 mm 3 m/s 764 mmHg 31%
01:00 +24°C° 0 mm 3 m/s 764 mmHg 31%
02:00 +22°C° 0 mm 3 m/s 764 mmHg 32%
03:00 +22°C° 0 mm 3 m/s 764 mmHg 32%
04:00 +24°C° 0 mm 3 m/s 764 mmHg 34%
05:00 +25°C° 0 mm 3 m/s 764 mmHg 35%
06:00 +25°C° 0 mm 2 m/s 765 mmHg 36%
07:00 +27°C° 0 mm 3 m/s 765 mmHg 32%
08:00 +30°C° 0 mm 3 m/s 765 mmHg 28%
09:00 +33°C° 0 mm 3 m/s 764 mmHg 24%
10:00 +34°C° 0 mm 4 m/s 764 mmHg 22%
11:00 +35°C° 0 mm 4 m/s 764 mmHg 20%
12:00 +36°C° 0 mm 4 m/s 764 mmHg 18%
13:00 +36°C° 0 mm 4 m/s 764 mmHg 18%
14:00 +36°C° 0 mm 4 m/s 763 mmHg 18%
15:00 +36°C° 0 mm 5 m/s 763 mmHg 17%
16:00 +35°C° 0 mm 4 m/s 763 mmHg 20%
17:00 +34°C° 0 mm 4 m/s 763 mmHg 23%
18:00 +31°C° 0 mm 3 m/s 762 mmHg 26%
19:00 +30°C° 0 mm 3 m/s 763 mmHg 26%
20:00 +29°C° 0 mm 3 m/s 763 mmHg 26%
21:00 +27°C° 0 mm 3 m/s 763 mmHg 26%
22:00 +26°C° 0 mm 4 m/s 763 mmHg 26%
23:00 +25°C° 0 mm 4 m/s 763 mmHg 25%

Après-demain, 17 Mai, Lundi

Heure Température Précipitation Vent Pression Humidité
00:00 +25°C° 0 mm 4 m/s 763 mmHg 25%
01:00 +23°C° 0 mm 4 m/s 763 mmHg 26%
02:00 +22°C° 0 mm 3 m/s 763 mmHg 26%
03:00 +21°C° 0 mm 3 m/s 763 mmHg 27%
04:00 +22°C° 0 mm 3 m/s 763 mmHg 29%
05:00 +24°C° 0 mm 3 m/s 764 mmHg 30%
06:00 +25°C° 0 mm 3 m/s 764 mmHg 31%
07:00 +27°C° 0 mm 4 m/s 764 mmHg 27%
08:00 +29°C° 0 mm 5 m/s 764 mmHg 22%
09:00 +32°C° 0 mm 6 m/s 764 mmHg 18%
10:00 +33°C° 0 mm 6 m/s 764 mmHg 16%
11:00 +34°C° 0 mm 6 m/s 764 mmHg 15%
12:00 +35°C° 0 mm 7 m/s 764 mmHg 14%
13:00 +35°C° 0 mm 6 m/s 763 mmHg 13%
14:00 +35°C° 0 mm 5 m/s 763 mmHg 13%
15:00 +36°C° 0 mm 5 m/s 762 mmHg 12%
16:00 +35°C° 0 mm 4 m/s 762 mmHg 15%
17:00 +34°C° 0 mm 4 m/s 762 mmHg 18%
18:00 +31°C° 0 mm 3 m/s 762 mmHg 21%
19:00 +30°C° 0 mm 4 m/s 762 mmHg 22%
20:00 +28°C° 0 mm 4 m/s 762 mmHg 22%
21:00 +27°C° 0 mm 4 m/s 762 mmHg 22%
22:00 +26°C° 0 mm 4 m/s 762 mmHg 24%
23:00 +25°C° 0 mm 4 m/s 762 mmHg 25%

18 Mai, Mardi

Heure Température Précipitation Vent Pression Humidité
00:00 +23°C° 0 mm 4 m/s 762 mmHg 27%
01:00 +23°C° 0 mm 4 m/s 762 mmHg 28%
02:00 +22°C° 0 mm 4 m/s 762 mmHg 29%
03:00 +22°C° 0 mm 4 m/s 761 mmHg 30%
04:00 +23°C° 0 mm 4 m/s 761 mmHg 31%
05:00 +23°C° 0 mm 4 m/s 762 mmHg 33%
06:00 +25°C° 0 mm 4 m/s 762 mmHg 34%
07:00 +28°C° 0 mm 4 m/s 761 mmHg 29%
08:00 +30°C° 0 mm 4 m/s 761 mmHg 24%
09:00 +34°C° 0 mm 4 m/s 761 mmHg 19%
10:00 +35°C° 0 mm 5 m/s 761 mmHg 17%
11:00 +36°C° 0 mm 5 m/s 761 mmHg 16%
12:00 +37°C° 0 mm 5 m/s 761 mmHg 14%
13:00 +37°C° 0 mm 5 m/s 760 mmHg 14%
14:00 +37°C° 0 mm 5 m/s 760 mmHg 14%
15:00 +37°C° 0 mm 4 m/s 760 mmHg 14%
16:00 +36°C° 0 mm 4 m/s 760 mmHg 17%
17:00 +34°C° 0 mm 4 m/s 759 mmHg 20%
18:00 +33°C° 0 mm 3 m/s 759 mmHg 24%
19:00 +32°C° 0 mm 4 m/s 759 mmHg 25%
20:00 +29°C° 0 mm 4 m/s 759 mmHg 26%
21:00 +27°C° 0 mm 4 m/s 759 mmHg 27%
22:00 +27°C° 0 mm 4 m/s 759 mmHg 28%
23:00 +26°C° 0 mm 4 m/s 759 mmHg 30%

19 Mai, Mercredi

Heure Température Précipitation Vent Pression Humidité
00:00 +25°C° 0 mm 3 m/s 759 mmHg 31%
01:00 +25°C° 0 mm 4 m/s 759 mmHg 32%
02:00 +23°C° 0 mm 4 m/s 759 mmHg 34%
03:00 +23°C° 0 mm 4 m/s 759 mmHg 36%
04:00 +25°C° 0 mm 4 m/s 759 mmHg 37%
05:00 +26°C° 0 mm 4 m/s 759 mmHg 38%
06:00 +27°C° 0 mm 3 m/s 760 mmHg 39%
07:00 +29°C° 0 mm 4 m/s 759 mmHg 35%
08:00 +32°C° 0 mm 5 m/s 759 mmHg 30%
09:00 +34°C° 0 mm 5 m/s 759 mmHg 26%
10:00 +35°C° 0 mm 5 m/s 759 mmHg 23%
11:00 +36°C° 0 mm 5 m/s 759 mmHg 20%
12:00 +36°C° 0 mm 4 m/s 759 mmHg 17%
13:00 +37°C° 0 mm 4 m/s 759 mmHg 17%
14:00 +37°C° 0 mm 4 m/s 758 mmHg 17%
15:00 +37°C° 0 mm 4 m/s 758 mmHg 16%
16:00 +36°C° 0 mm 3 m/s 758 mmHg 19%
17:00 +35°C° 0 mm 3 m/s 758 mmHg 21%
18:00 +34°C° 0 mm 3 m/s 758 mmHg 24%
19:00 +31°C° 0 mm 3 m/s 758 mmHg 27%
20:00 +29°C° 0 mm 4 m/s 758 mmHg 30%
21:00 +28°C° 0 mm 4 m/s 759 mmHg 32%
22:00 +27°C° 0 mm 4 m/s 759 mmHg 37%
23:00 +26°C° 0 mm 4 m/s 759 mmHg 41%

20 Mai, Jeudi

Heure Température Précipitation Vent Pression Humidité
00:00 +25°C° 0 mm 4 m/s 759 mmHg 45%
01:00 +23°C° 0 mm 4 m/s 759 mmHg 46%
02:00 +23°C° 0 mm 4 m/s 760 mmHg 48%
03:00 +22°C° 0 mm 4 m/s 760 mmHg 50%
04:00 +23°C° 0 mm 4 m/s 760 mmHg 46%
05:00 +25°C° 0 mm 3 m/s 760 mmHg 43%
06:00 +27°C° 0 mm 3 m/s 760 mmHg 40%
07:00 +29°C° 0 mm 2 m/s 760 mmHg 35%
08:00 +31°C° 0 mm 2 m/s 761 mmHg 30%
09:00 +34°C° 0 mm 2 m/s 761 mmHg 25%
10:00 +35°C° 0 mm 2 m/s 761 mmHg 23%
11:00 +36°C° 0 mm 2 m/s 761 mmHg 20%
12:00 +37°C° 0 mm 2 m/s 761 mmHg 18%
13:00 +37°C° 0 mm 2 m/s 761 mmHg 17%
14:00 +37°C° 0 mm 2 m/s 761 mmHg 16%
15:00 +38°C° 0 mm 2 m/s 760 mmHg 16%
16:00 +37°C° 0 mm 2 m/s 760 mmHg 18%
17:00 +36°C° 0 mm 2 m/s 760 mmHg 20%
18:00 +36°C° 0 mm 2 m/s 760 mmHg 22%
19:00 +34°C° 0 mm 2 m/s 761 mmHg 23%
20:00 +33°C° 0 mm 3 m/s 761 mmHg 23%
21:00 +30°C° 0 mm 4 m/s 761 mmHg 23%
22:00 +29°C° 0 mm 4 m/s 761 mmHg 26%
23:00 +29°C° 0 mm 5 m/s 761 mmHg 28%
Voir plus

Nous avons besoin de votre consentement

Meteoprog et ses fournisseurs de services peuvent stocker et accéder à des données personnelles telles que des cookies, des identifiants d'appareils ou d'autres technologies similaires sur votre appareil et traiter ces données pour personnaliser le contenu et les publicités, ainsi que pour fournir des fonctionnalités de médias sociaux et analyser le trafic.

  • Stocker et/ou accéder à des informations sur votre appareil

    Des cookies, des identifiants d'appareils ou d'autres informations peuvent être stockés ou accessibles sur votre appareil aux fins indiquées ci-dessus.

  • Annonces et contenus personnalisés, mesure des annonces et des contenus, connaissance de l'audience et développement de produits

    Les annonces et le contenu peuvent être personnalisés en fonction d'un profil. D'autres données peuvent être ajoutées pour mieux personnaliser les annonces et le contenu. Les performances des publicités et du contenu peuvent être mesurées. Il est possible d'obtenir des informations sur le public qui a vu les publicités et le contenu. Ces données peuvent être utilisées pour développer ou améliorer l'expérience de l'utilisateur, les systèmes et les logiciels.

En cliquant sur "J'accepte", vous autorisez l'utilisation de cookies, des identifiants d'appareils, des balises web ou d'autres technologies similaires. Vos paramètres peuvent être modifiés dans le navigateur de votre appareil.

Dans certains cas, des intérêts légitimes peuvent être invoqués plutôt qu'un consentement. Vous pouvez en savoir plus à ce sujet dans notre Politique de confidentialité et de cookies.